Location: La Fonteneille
(46.5176°N, 1.6665°E)
Time: 20:05:08
(UTC+00:00)

Daily predictions for brighter satellites

Satellite Brightness Start Highest point End
(mag) Time Altitude Azimuth Time Altitude Azimuth Time Altitude Azimuth
H-2A R/B 3.8 19:10:13 10° SSW 19:14:46 34° W 19:19:17 10° NNW
Cosmos 2219 Rocket 2.6 19:09:18 10° NNW 19:14:49 48° ENE 19:20:17 10° SE
SL-16 R/B 3.9 19:09:46 10° NW 19:14:52 35° WSW 19:19:55 10° S
Cosmos 44 4.4 19:11:15 10° SSE 19:15:23 26° ESE 19:19:42 10° ENE
ERS-2 2.0 19:11:56 10° NNE 19:15:35 72° ESE 19:19:12 10° S
Resurs 01 Rocket 3.2 19:13:43 10° ESE 19:16:54 20° ENE 19:20:05 10° NNE
Cosmos 1455 3.1 19:15:54 10° SSE 19:19:05 27° E 19:22:18 10° NNE
Cosmos 1825 Rocket 3.6 19:15:09 10° N 19:19:33 87° E 19:23:57 10° S
SAR-Lupe-4 3.6 19:17:14 10° NNE 19:20:51 85° WNW 19:24:26 10° SSW
ATLAS 5 CENTAUR R/B 3.5 19:18:17 10° WSW 19:21:58 32° NW 19:26:08 10° NNE
Resurs 1-3 4.3 19:24:06 10° SE 19:28:08 37° ENE 19:32:11 10° N
Cosmos 1758 Rocket 4.5 19:23:53 10° NNW 19:28:15 54° W 19:32:36 10° S
Lacrosse 5 rocket 3.2 19:26:04 10° W 19:29:43 31° NNW 19:33:34 10° NE
Cosmos 2034 Rocket 4.1 19:24:36 10° S 19:30:49 89° E 19:37:08 10° N
ATLAS 5 CENTAUR R/B 0.4 19:29:27 10° NW 19:31:20 61° NE 19:33:14 12° SE
Abrixas rocket 3.4 19:32:25 10° SSE 19:32:30 10° SSE 19:32:30 10° SSE
Nadezhda 4 Rocket 4.2 19:26:35 10° N 19:32:56 83° W 19:39:11 10° S
Cosmos 405 Rocket 4.1 19:31:23 10° NNE 19:34:38 23° ENE 19:37:21 12° ESE
In-Cosmos 22 Rocket 4.4 19:32:21 10° NNW 19:38:13 83° W 19:44:02 10° S
Cosmos 2237 Rocket 3.4 19:36:33 10° N 19:41:22 28° NE 19:45:35 12° ESE
SJ-6B 2.7 19:38:01 10° SSE 19:41:45 89° E 19:45:31 10° NNW
Exosat Rocket 4.1 19:35:48 10° NNW 19:42:28 56° ENE 19:47:11 12° SE
BREEZE-M DEB (TANK) 3.6 19:37:24 10° WSW 19:42:35 78° SSE 19:47:36 10° E
Meteor 2-10 Rocket 3.6 19:37:35 10° S 19:42:48 84° E 19:48:17 10° NNE
BREEZE-M DEB (TANK) 3.6 19:41:20 10° WSW 19:44:17 84° SSE 19:51:45 10° ENE
SL-8 R/B 3.7 19:40:00 10° WNW 19:44:52 89° SSW 19:48:58 14° ESE
MOS 1 4.3 19:40:08 10° SSE 19:45:43 72° ENE 19:51:23 10° N
Cosmos 405 2.8 19:45:32 10° S 19:48:59 82° E 19:52:29 10° NNE
Cosmos 2026 Rocket 4.0 19:43:18 10° N 19:49:21 66° E 19:55:25 10° SSE
OBJECT-B 1.0 19:46:57 10° S 19:50:09 71° W 19:53:24 10° NNW
IRS-1A Rocket 4.3 19:45:03 10° SSE 19:50:36 79° ENE 19:56:19 10° NNW
BREEZE-M DEB (TANK) 3.9 19:49:46 10° WSW 19:53:47 78° NNW 20:08:46 10° ENE
NOSS 3-4 (A) 4.0 19:48:34 10° SW 19:54:22 60° NW 20:00:39 10° NE
NOSS 3-4 (C) 4.0 19:48:40 10° SW 19:54:27 61° NW 20:00:45 10° NE
Cosmos 1892 3.4 19:52:12 10° NNW 19:55:54 54° W 19:59:35 10° S
Cosmos 2227 Rocket 3.6 19:57:04 16° ESE 19:57:50 16° E 20:01:08 10° ENE
Cosmos 1627 Rocket 4.4 19:53:19 10° N 19:59:29 81° E 20:05:40 10° S
Cosmos 2098 Rocket 4.5 19:53:21 10° N 20:00:25 82° W 20:07:51 10° S
Cosmos 2251 Rocket 3.6 19:56:10 10° S 20:01:24 56° ESE 20:06:38 10° NNE
Cosmos 389 Rocket 3.4 20:00:14 21° SE 20:01:38 28° E 20:04:42 10° NNE
Cosmos 2297 Rocket 3.2 20:02:12 16° SE 20:05:00 23° ESE 20:09:23 10° NE
Cosmos 2333 Rocket 2.6 19:59:30 10° NNW 20:05:13 66° WSW 20:10:53 10° SSE
Cosmos 1634 Rocket 4.0 19:59:53 10° S 20:06:09 78° E 20:12:25 10° N
BREEZE-M DEB (TANK) 2.2 20:04:43 10° WNW 20:07:07 48° N 20:08:17 23° ENE
Cosmos 2219 4.3 20:05:52 19° SE 20:07:41 22° E 20:11:55 10° NE
SPOT 3 Rocket 3.7 20:03:45 16° SE 20:07:46 57° ENE 20:12:51 10° N
ATLAS 2AS CENTAUR R/B 3.2 19:59:58 10° SW 20:07:54 78° NW 20:15:42 10° NE
Cosmos 1825 2.1 20:04:54 10° N 20:08:42 87° WSW 20:11:58 13° S
ARIANE 5 R/B 4.0 20:09:20 19° E 20:11:02 24° ENE 20:14:34 10° NNE
Ariane Rocket 3.2 20:08:13 10° S 20:13:15 70° WSW 20:18:19 10° NNW
Cosmos 2322 4.4 20:10:37 10° NW 20:16:07 52° WSW 20:21:33 10° S
Cosmos 1408 3.9 20:13:20 10° NNW 20:16:40 37° W 20:19:58 10° SSW
Orbus 7S? 3.3 20:16:08 10° WSW 20:18:56 78° NW 20:24:07 10° NE
CZ-4C R/B 4.2 20:16:00 10° W 20:20:39 30° NNW 20:26:10 10° NNE
RESURS DK-1 2.4 20:17:09 10° SSW 20:21:16 82° WNW 20:25:26 10° NNE
Landsat 7 3.9 20:20:37 24° SE 20:23:26 61° ENE 20:28:08 10° N
USA 245 4.0 20:24:37 30° ESE 20:25:38 35° ENE 20:28:48 10° N
Cosmos-2242 4.0 20:25:50 27° E 20:26:16 27° E 20:29:56 10° NNE
Meteor 2-1 Rocket 4.4 20:21:52 10° S 20:27:42 85° W 20:33:40 10° N
Cosmos 2058 3.5 20:25:39 10° NNW 20:29:46 55° W 20:33:19 13° S
Cosmos 1655 Rocket 4.2 20:28:17 10° N 20:34:29 55° ENE 20:37:46 27° SE
SL-16 R/B 3.5 20:30:33 10° N 20:35:23 27° NE 20:37:53 20° E
Cosmos 2058 Rocket 4.5 20:31:32 10° SW 20:35:37 39° WNW 20:39:44 10° N
Cosmos 614 Rocket 3.8 20:30:56 10° SSW 20:36:04 80° ESE 20:41:12 10° NNE
Cosmos 1980 3.7 20:31:18 10° NNW 20:36:59 68° ENE 20:39:45 31° SE
BREEZE-M DEB (TANK) 4.1 20:34:00 10° W 20:38:22 75° N 20:55:20 10° E
IRIDIUM 104 4.3 20:40:01 17° S 20:44:07 89° E 20:49:23 10° N
Cosmos 2151 3.1 20:39:54 10° N 20:44:11 59° ENE 20:45:17 44° SE
COSMOS 2428 3.6 20:40:12 10° NW 20:45:38 45° WSW 20:49:50 16° S
Cosmos 2344 3.6 20:38:44 10° SW 20:46:12 80° NW 20:54:14 10° NE
Meteor 2-3 Rocket 3.9 20:40:32 10° N 20:46:13 55° ENE 20:48:26 35° SE
Cosmos 1076 Rocket 3.7 20:43:38 10° NNW 20:47:58 69° W 20:50:07 29° S
FALCON 9 DEB 3.3 20:44:43 10° WSW 20:48:08 71° NNW 20:49:45 29° NE
ATLAS 3B R/B 3.1 20:41:49 10° NW 20:48:44 61° WSW 20:53:12 24° SSE
USA 215 3.2 20:45:38 29° ESE 20:49:16 87° NNE 20:55:50 10° NW
Cosmos 192 4.3 20:45:26 10° NNW 20:50:25 83° WSW 20:52:27 36° SSE
Cosmos 1812 Rocket 3.5 20:47:57 26° S 20:50:26 88° E 20:54:56 10° N
Resurs 01 Rocket 2.3 20:50:18 21° SSW 20:53:01 51° W 20:57:23 10° NNW
IRIDIUM 114 4.4 20:49:08 16° S 20:53:16 77° W 20:58:32 10° N
Cosmos 1818 3.9 20:48:39 10° SW 20:54:03 68° NW 20:59:32 10° NNE
ERS-1 Rocket 3.4 20:54:40 38° ESE 20:55:52 45° ENE 21:00:38 10° N
Cosmos 44 4.1 20:51:13 10° SW 20:56:17 57° NW 21:01:36 10° NNE
Cosmos 407 Rocket 3.4 20:53:35 27° S 20:56:20 65° ESE 21:01:29 10° NNE
Cosmos 2219 Rocket 3.7 20:53:40 10° NW 20:58:33 30° WSW 21:02:59 12° SSW
Okean 3 Rocket 4.3 20:54:52 10° N 20:59:07 37° ENE 20:59:21 37° E
NOSS 0 Rocket 4.2 20:53:45 10° NW 20:59:53 62° WSW 21:03:07 29° S
Meteor 2-21 4.4 20:56:14 10° N 21:02:19 84° W 21:05:27 31° S
Cosmos 1766 Rocket 4.1 20:59:25 10° N 21:03:29 40° ENE 21:03:29 40° ENE
Cosmos 1633 2.5 21:00:19 10° NNW 21:03:56 75° W 21:04:10 71° SW
CARTOSAT-1 3.5 21:04:22 59° ESE 21:04:55 66° ENE 21:09:14 10° N
IGS 5A 4.5 21:04:09 26° SSW 21:06:00 42° W 21:09:59 10° NNW
Lacrosse 5 rocket 3.8 21:06:46 10° NW 21:09:56 20° N 21:13:13 10° NE
Cosmos 405 Rocket 4.4 21:07:05 10° NNW 21:10:38 30° W 21:12:30 20° SW
Cosmos 1954 Rocket 4.5 21:12:17 40° E 21:12:17 40° E 21:16:35 10° NE
Cosmos 1023 Rocket 4.3 21:12:05 34° SSW 21:14:21 84° ESE 21:19:28 10° NNE
COSMOS 2455 3.6 21:18:15 33° E 21:18:15 33° E 21:22:33 10° NE
Cosmos 1869 4.2 21:18:39 37° NE 21:18:39 37° NE 21:21:24 10° NNE
SPOT 5 2.6 21:19:30 66° ESE 21:19:51 69° ENE 21:24:34 10° N
Cosmos 1140 Rocket 3.3 21:18:31 34° SSW 21:20:47 89° WNW 21:25:57 10° NNE
Spot 2 Rocket 3.6 21:21:42 47° S 21:23:06 71° WSW 21:28:12 10° NNW
Cosmos 2237 Rocket 2.6 21:20:16 10° NW 21:25:47 57° WSW 21:27:26 41° SSW
Terra 1.8 21:28:59 61° E 21:29:07 62° ENE 21:33:49 10° N
Cosmos 2082 4.0 21:39:13 48° E 21:39:13 48° E 21:43:52 10° NE
Cosmos 2263 Rocket 4.3 21:42:47 13° ENE 21:42:47 13° ENE 21:43:34 10° ENE
Cosmos 2227 Rocket 2.2 21:38:45 37° SSW 21:41:06 83° WNW 21:46:49 10° NNE
Cosmos 468 Rocket 4.3 21:38:41 10° NNW 21:43:43 51° ENE 21:43:44 51° ENE
Meteor 2-8 Rocket 4.3 21:42:18 54° S 21:43:50 88° E 21:50:01 10° N
ARIANE 5 R/B 3.6 21:46:52 38° WSW 21:47:17 39° W 21:51:26 10° NNW
Cosmos 2297 Rocket 2.7 21:43:48 14° SW 21:48:36 59° WNW 21:54:13 10° NNE
Cosmos 1190 Rocket 4.4 21:47:49 33° SW 21:50:03 59° WNW 21:55:14 10° NNE
Cosmos 2219 3.6 21:47:37 21° SW 21:51:21 61° WNW 21:56:57 10° NNE
H-2A R/B 4.1 21:50:26 10° NNE 21:53:41 52° N 21:53:41 52° N
Timation 2 Rocket 4.3 21:54:58 15° SW 22:00:27 66° WNW 22:06:45 10° NNE
BREEZE M DEB (TANK) 4.3 21:59:04 12° WSW 22:03:22 80° SSE 22:20:35 10° ENE
Cosmos 1763 Rocket 3.5 21:58:19 10° NNW 22:02:58 67° NNE 22:02:58 67° NNE
Nadezhda 2 Rocket 4.3 21:58:45 10° N 22:05:05 88° W 22:05:44 73° S
Cosmos 1408 Rocket 4.3 22:02:51 10° N 22:06:07 51° NNW 22:06:07 51° NNW
Cosmos 676 Rocket 4.1 22:07:09 67° W 22:07:28 69° WNW 22:12:39 10° NNE
SL-16 R/B 2.4 22:14:18 10° NNW 22:19:46 59° WSW 22:19:46 59° WSW
Meteor 2-15 Rocket 4.3 22:22:07 79° SW 22:22:25 83° W 22:28:32 10° N
Cosmos 540 Rocket 4.0 22:17:45 10° NNW 22:22:04 52° NNE 22:22:04 52° NNE
NOSS 3-1 (C) 4.0 22:19:30 10° NW 22:26:56 77° NE 22:28:43 58° ESE
SL-08 ROCKET BODY 4.3 22:21:48 10° N 22:27:52 87° WNW 22:27:52 87° WNW
Cosmos 2221 3.8 22:30:07 37° N 22:30:07 37° N 22:32:51 10° N
SL-08 R/B 4.3 22:25:28 10° N 22:31:39 84° W 22:31:43 84° WSW
USA 215 4.3 22:32:58 31° SW 22:32:58 31° SW 22:38:25 10° WNW
Cosmos 1386 Rocket 4.4 22:28:54 10° N 22:34:38 71° NE 22:34:38 71° NE
Cosmos 44 Rocket 4.1 22:36:36 48° NNE 22:36:36 48° NNE 22:40:24 10° NE
Aureole 1 Rocket 4.2 22:38:07 48° NE 22:38:07 48° NE 22:41:33 10° NNE
Cosmos 1553 Rocket 3.9 22:39:11 80° WNW 22:39:11 80° WNW 22:45:14 10° N
ALOS 2 4.2 22:49:56 30° NNE 22:49:56 30° NNE 22:52:28 10° N
Cosmos 1943 3.5 22:44:03 10° NNW 22:48:59 59° NNE 22:48:59 59° NNE
Cosmos 1417 Rocket 4.5 22:49:46 79° WNW 22:49:46 79° WNW 22:56:02 10° N
Lacrosse 5 rocket 3.3 22:46:20 10° NW 22:49:47 29° N 22:49:47 29° N
COSMOS 2455 3.7 23:01:18 38° W 23:02:55 47° NW 23:08:44 10° NNE
SeaSat 1 3.2 23:00:30 10° NNE 23:04:24 49° NNW 23:04:24 49° NNW
Terra 4.1 23:07:51 17° W 23:07:51 17° W 23:10:20 10° NW
Cosmos 2315 Rocket 4.3 23:10:31 61° NE 23:10:31 61° NE 23:16:03 10° NNE
Cosmos 2263 Rocket 2.7 23:24:26 54° N 23:24:26 54° N 23:28:48 10° NNE
USA 281 3.6 23:33:03 50° ENE 23:33:44 52° ENE 23:40:04 10° NNW
USA 229 DEB 3.9 23:26:41 10° NW 23:33:33 69° W 23:33:33 69° W
USA 229 3.9 23:26:46 10° NW 23:33:40 69° WSW 23:33:40 69° WSW
Cosmos 1844 Rocket 4.3 23:39:31 25° ENE 23:39:31 25° ENE 23:42:19 10° NE
Cosmos 2074 Rocket 4.4 23:37:40 10° N 23:43:22 57° ENE 23:43:22 57° ENE
Cosmos 1709 Rocket 4.5 23:41:29 10° NNW 23:46:44 51° WNW 23:46:44 51° WNW
